1279411232231,94.1639
1279411292231,94.5361
1279411352231,94.0253
1279411412231,94.0743
1279411472231,94.4792
1279411532231,94.4476
1279411592231,94.4049
1279411652231,94.1925
1279411712231,93.8972
1279411772231,94.0563
1279411832231,94.9004
1279411892231,94.2812
1279411952231,94.8054
1279412012231,94.8312
1279412072231,94.3297
1279412132231,94.4045
1279412192231,94.1673
1279412252231,94.2817
1279412312231,94.6724
1279412372231,94.2701
1279412432231,94.5897
1279412492231,94.6458
1279412552231,94.5657
1279412612231,94.4089
1279412672231,94.4361
1279412732231,94.2696
1279412792231,94.8471
1279412852231,94.5498
1279412912231,94.9666
1279412972231,95.0644
1279413032231,95.0545
1279413092231,94.3255
1279413152231,94.6734
1279413212231,95.0026
1279413272231,94.5201
1279413332231,94.8681
1279413392231,94.4911
1279413452231,94.0846
1279413512231,94.4105
1279413572231,94.7795
1279413632231,94.5490
1279413692231,95.3918
1279413752231,94.8058
1279413812231,95.2149
1279413872231,95.0339
1279413932231,95.1486
1279413992231,94.7940
1279414052231,94.6486
1279414112231,95.4101
1279414172231,95.3729
1279414232231,94.9835
1279414292231,94.8820
1279414352231,94.5911
1279414412231,95.1091
1279414472231,95.0071
1279414532231,95.0890
1279414592231,94.9179
1279414652231,95.5333
1279414712231,95.2683
1279414772231,94.9207
1279414832240,95.3607
1279414892240,94.9956
1279414952240,95.0549
1279415012240,95.3912
1279415072240,95.2469
1279415132240,95.0182
1279415192240,95.9047
1279415252240,95.1928
1279415312240,95.6099
1279415372240,95.5147
1279415432240,95.2233
1279415492240,94.9148
1279415552240,95.0593
1279415612240,94.9539
1279415672240,95.0726
1279415732240,94.4467
1279415792240,94.8606
1279415852240,95.0071
1279415912240,95.1544
1279415972240,94.9053
1279416032240,94.9812
1279416092240,95.3264
1279416152240,95.0337
1279416212240,95.2303
1279416272240,95.4777
1279416332240,94.8821
1279416392240,95.1929
1279416452240,95.1465
1279416512240,94.5627
1279416572240,94.6234
1279416632240,95.0981
1279416692240,95.0357
1279416752240,94.7300
1279416812240,94.8081
1279416872240,95.2249
1279416932240,94.4519
1279416992240,94.5777
1279417052240,94.5034
1279417112240,94.6845
1279417172240,94.9076
1279417232240,94.6165
1279417292240,95.2467
1279417352240,94.8774
1279417412240,94.6826
1279417472240,94.5512
1279417532240,94.5991
1279417592240,94.9052
1279417652240,94.4924
1279417712240,94.6238
1279417772240,94.3136
1279417832240,95.1119
1279417892240,94.4348
1279417952240,94.7467
1279418012240,94.6364
1279418072240,94.4376
1279418132240,94.3361
1279418192240,94.4762
1279418252240,94.9730
1279418312240,94.5745
1279418372240,94.2994
1279418432249,94.7294
1279418492249,94.2731
1279418552249,94.2444
1279418612249,94.6861
1279418672249,94.9032
1279418732249,94.4408
1279418792249,94.4128
1279418852249,94.2547
1279418912249,94.4936
1279418972249,94.3200
1279419032249,94.3393
1279419092249,94.4924
1279419152249,94.1928
1279419212249,94.5034
1279419272249,94.5783
1279419332249,94.3474
1279419392249,94.8483
1279419452249,94.1637
1279419512249,94.3682
1279419572249,94.1910
1279419632249,94.2106
1279419692249,94.2293
1279419752249,94.0884
1279419812249,94.1964
1279419872249,94.2911
1279419932249,93.8842
1279419992249,93.8859
1279420052249,94.2149
1279420112249,94.6272
1279420172249,94.6808
1279420232249,94.3042
1279420292249,94.1595
1279420352249,94.1022
1279420412249,94.3011
1279420472249,94.3979
1279420532249,94.7666
1279420592249,94.0584
1279420652249,94.5005
1279420712249,94.7205
1279420772249,93.9844
1279420832249,94.0433
1279420892249,94.4816
1279420952249,94.4302
1279421012249,95.1596
1279421072249,93.8056
1279421132249,94.2493
1279421192249,94.2519
1279421252249,94.2806
1279421312249,94.8476
1279421372249,94.5852
1279421432249,94.3744
1279421492249,94.5990
1279421552249,94.5563
1279421612249,94.2465
1279421672249,94.2782
1279421732249,94.6900
1279421792249,94.6697
1279421852249,94.2885
1279421912249,94.4676
1279421972249,94.4005
1279422032258,94.1649
1279422092258,93.8951
1279422152258,94.1209
1279422212258,94.1519
1279422272258,94.4903
1279422332258,94.6046
1279422392258,94.5421
1279422452258,94.0750
1279422512258,94.6498
1279422572258,94.3304
1279422632258,94.5842
1279422692258,94.4452
1279422752258,94.6502
1279422812258,94.5116
1279422872258,94.4457
1279422932258,94.7448
1279422992258,94.1573
1279423052258,94.6280
1279423112258,94.7459
1279423172258,94.7693
1279423232258,94.5748
1279423292258,94.2517
1279423352258,94.8859
1279423412258,94.7214
1279423472258,94.7355
1279423532258,95.0119
1279423592258,94.0582
1279423652258,94.8280
1279423712258,94.6792
1279423772258,94.3593
1279423832258,95.0931
1279423892258,95.1032
1279423952258,94.4496
1279424012258,94.8256
1279424072258,95.0180
1279424132258,94.5652
1279424192258,94.4652
1279424252258,94.5864
1279424312258,94.8261
1279424372258,94.4048
1279424432258,95.0010
1279424492258,94.9469
1279424552258,94.9965
1279424612258,94.9846
1279424672258,94.6323
1279424732258,94.8679
1279424792258,94.7209
1279424852258,95.2746
1279424912258,94.8246
1279424972258,94.9766
1279425032258,94.6423
1279425092258,94.7027
1279425152258,94.8752
1279425212258,94.8433
1279425272258,94.2820
1279425332258,94.5762
1279425392258,94.7977
1279425452258,95.0165
1279425512258,94.9628
1279425572258,94.4960
1279425632267,94.5032
1279425692266,94.6338
1279425752266,94.6221
1279425812266,94.1356
1279425872266,94.5835
1279425932266,94.4124
1279425992266,94.4110
1279426052266,95.2887
1279426112266,94.4943
1279426172266,94.4575
1279426232266,94.3997
1279426292266,94.3541
1279426352266,94.4882
1279426412266,94.8621
1279426472266,94.8964
1279426532266,94.3736
1279426592266,94.8756
1279426652266,94.3196
1279426712266,94.8630
1279426772266,94.3912
1279426832266,94.6350
1279426892266,94.1587
1279426952267,94.5949
1279427012266,94.6761
1279427072266,94.8901
1279427132266,94.6509
1279427192266,94.7299
1279427252266,94.6797
1279427312266,94.5846
1279427372266,94.4817
1279427432266,94.2678
1279427492266,94.9052
1279427552266,95.0882
1279427612266,94.3670
1279427672266,95.0685
1279427732266,95.0270
1279427792266,94.7855
1279427852266,94.0875
1279427912266,94.6074
1279427972266,94.5077
1279428032266,95.1624
1279428092266,94.6108
1279428152266,94.5857
1279428212266,94.6829
1279428272266,94.3812
1279428332267,94.4499
1279428392266,94.6679
1279428452266,93.8768
1279428512266,94.8284
1279428572266,94.6553
1279428632266,94.3604
1279428692266,94.5802
1279428752266,94.3151
1279428812266,94.6068
1279428872266,94.5310
1279428932266,94.6040
1279428992266,94.2130
1279429052266,94.8719
1279429112266,94.6925
1279429172266,94.4442
1279429232275,94.6746
1279429292275,94.9755
1279429352275,94.1675
1279429412275,94.6639
1279429472275,94.8664
1279429532275,95.1062
1279429592275,95.1719
1279429652275,94.4270
1279429712275,94.3022
1279429772275,94.8777
1279429832275,94.3339
1279429892275,94.9455
1279429952275,94.5429
1279430012275,94.7731
1279430072275,94.2655
1279430132275,95.0763
1279430192275,94.4721
1279430252275,94.7430
1279430312275,94.5363
1279430372275,94.2434
1279430432275,94.4381
1279430492275,94.5852
1279430552275,94.2321
1279430612275,94.6361
1279430672275,94.5041
1279430732275,94.1043
1279430792275,94.0798
1279430852275,94.7178
1279430912275,94.1119
1279430972275,94.3514
1279431032275,94.5138
1279431092275,94.5412
1279431152275,93.9173
1279431212275,94.4828
1279431272275,94.5259
1279431332275,93.7687
1279431392275,94.2466
1279431452275,94.7632
1279431512275,94.4793
1279431572275,94.0359
1279431632275,93.9457
1279431692275,94.1878
1279431752275,94.9095
1279431812275,94.4502
1279431872275,94.4272
1279431932275,93.9009
1279431992275,93.6621
1279432052275,94.3143
1279432112275,95.1989
1279432172275,94.0340
1279432232275,94.2419
1279432292275,94.3868
1279432352275,94.7372
1279432412275,94.4701
1279432472275,94.1936
1279432532275,94.4097
1279432592275,94.1257
1279432652275,94.0226
1279432712275,94.3886
1279432772275,94.2625
1279432832283,94.8034
1279432892283,94.4756
1279432952283,94.4155
1279433012283,94.6049
1279433072283,94.2205
1279433132283,93.9567
1279433192283,94.0925
1279433252283,93.8566
1279433312283,94.2817
1279433372283,94.0755
1279433432283,93.8009
1279433492283,94.3275
1279433552283,94.7626
1279433612283,94.0935
1279433672283,94.3520
1279433732283,94.4425
1279433792283,94.4252
1279433852283,94.2782
1279433912283,93.8066
1279433972283,94.2364
1279434032283,93.5343
1279434092283,94.1935
1279434152283,94.3531
1279434212283,94.6260
1279434272283,94.0732
1279434332283,94.3769
1279434392283,93.3830
1279434452283,94.4055
1279434512283,93.7331
1279434572283,93.9188
1279434632283,93.7368
1279434692283,94.3211
1279434752283,93.6282
1279434812283,94.0161
1279434872283,93.7926
1279434932283,93.8167
1279434992283,94.1930
1279435052283,93.3740
1279435112283,93.8122
1279435172283,94.4028
1279435232283,93.7366
1279435292283,94.0532
1279435352283,94.1487
1279435412283,93.7078
1279435472283,93.8266
1279435532283,94.0390
1279435592283,93.6913
1279435652283,93.3793
1279435712283,93.6341
1279435772283,93.3881
1279435832283,93.9053
1279435892283,93.6339
1279435952283,93.6008
1279436012283,93.7972
1279436072283,93.7591
1279436132283,93.7479
1279436192283,93.8566
1279436252283,93.6584
1279436312283,93.0358
1279436372283,93.3800
1279436432291,93.4813
1279436492291,93.2788
1279436552291,93.8399
1279436612291,94.0079
1279436672291,93.1231
1279436732291,93.4959
1279436792291,93.7028
1279436852291,93.5174
1279436912291,93.5840
1279436972291,93.6655
1279437032291,93.4885
1279437092291,93.3611
1279437152291,93.5699
1279437212291,92.8995
1279437272291,93.6367
1279437332291,93.1699
1279437392291,93.7399
1279437452291,93.1209
1279437512291,93.3850
1279437572291,93.1510
1279437632291,93.1649
1279437692291,93.1673
1279437752291,93.2491
1279437812291,93.1367
1279437872291,93.4031
1279437932291,93.2862
1279437992291,93.0889
1279438052291,93.3883
1279438112291,93.3262
1279438172291,93.2679
1279438232291,93.7965
1279438292291,93.3026
1279438352291,93.0443
1279438412291,92.9917
1279438472291,92.9761
1279438532291,93.1082
1279438592291,93.2927
1279438652291,93.0830
1279438712291,93.1438
1279438772291,93.4401
1279438832291,92.8033
1279438892291,92.8485
1279438952291,93.0561
1279439012291,93.4703
1279439072291,92.9088
1279439132291,92.8290
1279439192291,93.3111
1279439252291,92.8816
1279439312291,93.2698
1279439372291,93.2830
1279439432291,92.7196
1279439492291,92.7210
1279439552291,93.1363
1279439612291,92.5327
1279439672291,93.1106
1279439732291,92.9127
1279439792291,93.3889
1279439852291,92.7670
1279439912291,92.7937
1279439972291,92.8349
1279440032300,93.2376
1279440092300,93.4439
1279440152300,93.1046
1279440212300,93.2421
1279440272300,93.3831
1279440332300,93.3002
1279440392300,92.9580
1279440452300,93.6136
1279440512300,93.2038
1279440572300,93.3631
1279440632300,92.9268
1279440692300,92.8393
1279440752300,92.7486
1279440812300,93.4471
1279440872300,92.5612
1279440932300,93.0090
1279440992300,92.7639
1279441052300,92.8354
1279441112300,92.8240
1279441172300,92.9747
1279441232300,93.1278
1279441292300,93.2909
1279441352300,93.0154
1279441412300,93.4654
1279441472300,93.2212
1279441532300,92.8670
1279441592300,93.0213
1279441652300,92.9363
1279441712300,92.9339
1279441772300,92.8453
1279441832300,92.5795
1279441892300,93.6072
1279441952300,93.4578
1279442012300,93.1424
1279442072300,92.9698
1279442132300,92.8185
1279442192300,92.9151
1279442252300,92.8874
1279442312300,93.7105
1279442372300,93.0460
1279442432300,92.9751
1279442492300,93.0129
1279442552300,92.5405
1279442612300,93.1787
1279442672300,93.4236
1279442732300,93.0566
1279442792300,93.4447
1279442852300,93.2900
1279442912300,92.8391
1279442972300,93.0264
1279443032300,93.1850
1279443092300,93.1271
1279443152300,93.0039
1279443212300,92.5250
1279443272300,92.4789
1279443332300,93.2188
1279443392300,92.8656
1279443452300,93.1588
1279443512300,93.2188
1279443572300,93.2828
1279443632308,93.3366
1279443692308,92.8561
1279443752308,93.4807
1279443812308,93.0954
1279443872308,93.1363
1279443932308,93.6883
1279443992308,92.9875
1279444052308,93.0592
1279444112308,93.3073
1279444172308,92.7913
1279444232308,92.8710
1279444292308,93.0501
1279444352308,92.8924
1279444412308,93.0283
1279444472308,93.5748
1279444532308,93.4446
1279444592308,93.1799
1279444652308,93.1036
1279444712308,93.2749
1279444772308,92.5563
1279444832308,92.6680
1279444892308,93.6569
1279444952308,93.2082
1279445012308,92.9083
1279445072308,92.7788
1279445132308,93.1722
1279445192308,93.2583
1279445252308,93.4569
1279445312308,93.2284
1279445372308,93.4740
1279445432308,93.5402
1279445492308,93.3740
1279445552308,93.1952
1279445612308,93.0819
1279445672308,93.2241
1279445732308,93.0350
1279445792308,93.6244
1279445852308,93.9679
1279445912308,93.1777
1279445972308,93.7806
1279446032308,93.3454
1279446092308,93.7629
1279446152308,93.5525
1279446212308,93.5898
1279446272308,93.2241
1279446332308,93.4900
1279446392308,93.5615
1279446452308,93.8690
1279446512308,93.3134
1279446572308,93.6686
1279446632308,93.7988
1279446692308,93.6250
1279446752308,93.7171
1279446812308,93.6359
1279446872308,93.8388
1279446932308,93.5305
1279446992308,93.2528
1279447052308,93.2577
1279447112308,93.7297
1279447172308,93.7032
1279447232316,93.8561
1279447292316,93.4715
1279447352316,93.5861
1279447412316,93.8082
1279447472316,93.8256
1279447532316,93.7832
1279447592316,93.9201
1279447652316,93.6083
1279447712316,93.8983
1279447772316,93.7615
1279447832316,93.7712
1279447892316,93.4575
1279447952316,93.9859
1279448012316,93.4149
1279448072316,93.9748
1279448132316,93.5484
1279448192316,93.4372
1279448252316,93.5248
1279448312316,93.9770
1279448372316,93.8674
1279448432316,94.1316
1279448492316,93.1165
1279448552316,93.8546
1279448612316,93.7076
1279448672316,93.6970
1279448732316,93.7637
1279448792316,93.9482
1279448852316,93.6295
1279448912316,93.6734
1279448972316,94.2459
1279449032316,93.7884
1279449092316,93.7145
1279449152316,94.1825
1279449212316,93.9019
1279449272316,93.2635
1279449332316,94.1308
1279449392316,93.6707
1279449452316,93.9493
1279449512316,94.1424
1279449572316,93.4645
1279449632316,94.0095
1279449692316,93.9771
1279449752316,93.7696
1279449812316,94.1143
1279449872316,93.9591
1279449932316,93.6949
1279449992316,94.0337
1279450052316,93.7651
1279450112316,93.8731
1279450172316,94.3192
1279450232316,93.8713
1279450292316,94.1274
1279450352316,94.5554
1279450412316,94.0430
1279450472316,94.1151
1279450532316,93.4776
1279450592316,93.6899
1279450652316,94.5611
1279450712316,93.9433
1279450772316,93.7714
1279450832324,93.3847
1279450892324,94.0675
1279450952324,93.5588
1279451012324,94.3046
1279451072324,93.7896
1279451132324,94.3176
1279451192324,94.0132
1279451252324,93.6950
1279451312324,94.1556
1279451372324,93.6407
1279451432324,93.9264
1279451492324,94.1961
1279451552324,93.7915
1279451612324,94.3347
1279451672324,94.2810
1279451732324,94.0075
1279451792324,94.1878
1279451852324,94.0841
1279451912324,93.8850
1279451972324,93.9140
1279452032324,93.6107
1279452092324,93.9719
1279452152324,93.4455
1279452212324,93.7569
1279452272324,94.0537
1279452332324,93.8173
1279452392324,94.6373
1279452452324,93.8747
1279452512324,94.2137
1279452572324,93.7929
1279452632324,94.5429
1279452692324,94.1253
1279452752324,94.0753
1279452812324,93.5373
1279452872324,94.0545
1279452932324,94.4078
1279452992324,94.2114
1279453052324,93.7858
1279453112324,94.5084
1279453172324,94.2488
1279453232324,94.4678
1279453292324,94.5245
1279453352324,94.0223
1279453412324,94.5674
1279453472324,94.2030
1279453532324,94.2840
1279453592324,94.5881
1279453652324,94.4744
1279453712324,94.2045
1279453772324,93.7017
1279453832324,94.4268
1279453892324,94.8265
1279453952324,94.3336
1279454012324,94.3451
1279454072324,94.7618
1279454132324,94.1610
1279454192324,94.1712
1279454252324,94.2039
1279454312324,94.4456
1279454372324,94.0797
1279455572335,95.2786
1279455632335,94.5491
1279455692335,94.5924
1279455752335,94.2097
1279455812335,94.0878
1279455872335,94.5020
1279455932335,94.1793
1279455992335,94.1513
1279456052335,94.1131
1279456112335,94.6045
1279456172335,94.1870
1279456232335,94.2235
1279456292335,94.6644
1279456352335,94.0231
1279456412335,94.3513
1279456472335,94.4072
1279456532335,93.9410
1279456592335,94.7357
1279456652335,94.3757
1279456712335,94.6856
1279456772335,94.5092
1279456832335,94.7366
1279456892335,94.5852
1279456952335,94.7335
1279457012335,94.8445
1279457072335,94.1777
1279457132335,94.7376
1279457192335,94.4903
1279457252335,94.6014
1279457312335,94.3562
1279457372335,94.9188
1279457432335,95.0114
1279457492335,94.1543
1279457552335,94.7832
1279457612335,94.4497
1279457672335,94.6112
1279457732335,94.6537
1279457792335,94.7738
1279457852335,95.1679
1279457912335,94.5810
1279457972335,93.8490
1279458032340,94.8527
1279458092340,95.0232
1279458152340,94.3638
1279458212340,95.0013
1279458272340,94.9103
1279458332340,94.7403
1279458392340,94.9297
1279458452340,94.6344
1279458512340,94.6814
1279458572340,94.8467
1279458632340,95.1821
1279458692340,94.8261
1279458752340,95.1427
1279458812340,94.7190
1279458872340,95.1110
1279458932340,94.6057
1279458992340,94.9113
1279459052340,94.3824
1279459112340,95.2737
1279459172340,95.3595
1279459232340,94.7870
1279459292340,95.0646
1279459352340,95.2351
1279459412340,94.7615
1279459472340,95.2117
1279459532340,94.6992
1279459592340,95.0395
1279459652340,94.7382
1279459712340,94.8982
1279459772340,94.8934
1279459832340,95.0524
1279459892340,95.0654
1279459952340,95.0588
1279460012340,95.2627
1279460072340,95.6727
1279460132340,95.1041
1279460192340,94.9070
1279460252340,94.8568
1279460312340,95.1824
1279460372340,95.1062
1279460432340,95.2339
1279460492340,94.6432
1279460552340,94.7633
1279460612340,94.6877
1279460672340,95.1037
1279460732340,95.2571
1279460792340,95.1389
1279460852340,94.9742
1279460912340,95.2170
1279460972340,94.7574
1279461032340,94.5965
1279461092340,95.3362
1279461152340,94.9179
1279461212340,95.0546
1279461272340,95.2198
1279461332340,94.7215
1279461392340,95.1290
1279461452340,94.3614
1279461512340,95.2085
1279461572340,95.3916
1279461632349,95.0180
1279461692349,95.5768
1279461752349,94.9023
1279461812349,94.7577
1279461872349,95.2733
1279461932349,94.9897
1279461992349,94.9630
1279462052349,95.2614
1279462112349,95.1880
1279462172349,95.0164
1279462232349,95.4163
1279462292349,94.7795
1279462352349,95.5937
1279462412349,95.3295
1279462472349,95.1515
1279462532349,94.6227
1279462592349,95.5582
1279462652349,95.5680
1279462712349,94.9459
1279462772349,95.1659
1279462832349,95.2679
1279462892349,95.3139
1279462952349,95.2434
1279463012349,95.1363
1279463072349,95.1033
1279463132349,95.3016
1279463192349,95.0811
1279463252349,95.1000
1279463312349,94.5305
1279463372349,95.2069
1279463432349,94.6402
1279463492349,95.3055
1279463552349,95.5209
1279463612349,95.0408
1279463672349,95.0937
1279463732349,94.8798
1279463792349,94.7649
1279463852349,95.2832
1279463912349,94.9736
1279463972349,95.1299
1279464032349,95.3319
1279464092349,95.0256
1279464152349,94.9777
1279464212349,94.9965
1279464272349,95.3534
1279464332349,95.3725
1279464392349,95.1160
1279464452349,94.8704
1279464512349,94.9122
1279464572349,95.5779
1279464632349,95.3591
1279464692349,95.4308
1279464752349,94.6213
1279464812349,94.9178
1279464872349,94.6354
1279464932349,94.7760
1279464992349,95.3205
1279465052349,95.4170
1279465112349,94.9710
1279465172349,94.6034
1279465232358,94.6207
1279465292358,95.0832
1279465352358,94.8404
1279465412358,95.0670
1279465472358,95.1937
1279465532358,94.2743
1279465592358,95.1101
1279465652358,95.2179
1279465712358,95.2477
1279465772358,95.3043
1279465832358,95.3238
1279465892358,95.8478
1279465952358,95.5891
1279466012358,95.2126
1279466072358,95.7041
1279466132358,95.5977
1279466192358,95.6597
1279466252358,95.4300
1279466312358,95.8585
1279466372358,95.5785
1279466432358,95.3134
1279466492358,95.6505
1279466552358,96.1218
1279466612358,95.6086
1279466672358,95.3912
1279466732358,95.7179
1279466792358,95.7936
1279466852358,95.4751
1279466912358,95.7950
1279466972358,95.4006
1279467032358,95.6920
1279467092358,95.6688
1279467152358,96.1441
1279467212358,96.3067
1279467272358,95.9328
1279467332358,95.9262
1279467392358,96.0432
1279467452358,95.7669
1279467512358,95.8694
1279467572358,95.9847
1279467632358,95.9927
1279467692358,95.8555
1279467752358,96.1364
1279467812358,96.3966
1279467872358,96.2912
1279467932358,95.9183
1279467992358,96.2102
1279468052358,96.6890
1279468112358,96.1476
1279468172358,96.1611
1279468232358,96.3982
1279468292358,96.2605
1279468352358,96.4760
1279468412358,96.3127
1279468472358,96.1497
1279468532358,96.3387
1279468592358,96.2426
1279468652358,96.7363
1279468712358,96.3537
1279468772358,96.0627
1279468832367,95.6526
1279468892367,96.4177
1279468952367,96.3737
1279469012367,96.0958
1279469072367,96.1415
1279469132367,96.3364
1279469192367,97.0621
1279469252367,96.1134
1279469312367,96.5312
1279469372367,96.0158
1279469432367,96.7379
1279469492367,96.6536
1279469552367,96.6414
1279469612367,96.8464
1279469672367,96.7402
1279469732367,96.5866
1279469792367,96.3022
1279469852367,96.9476
1279469912367,96.2419
1279469972367,96.0866
1279470032367,96.5575
1279470092367,96.7207
1279470152367,96.2844
1279470212367,96.3204
1279470272367,96.3661
1279470332367,96.9239
1279470392367,96.7162
1279470452367,96.4623
1279470512367,96.5155
1279470572367,96.1722
1279470632367,96.5600
1279470692367,96.7218
1279470752367,96.5939
1279470812367,96.6835
1279470872367,96.5040
1279470932367,96.4463
1279470992367,96.2853
1279471052367,97.1075
1279471112367,97.0108
1279471172367,96.7704
1279471232367,96.7537
1279471292367,96.3674
1279471352367,96.8251
1279471412367,96.8634
1279471472367,97.0490
1279471532367,96.5346
1279471592367,96.7203
1279471652367,96.5499
1279471712367,96.8760
1279471772367,96.5073
1279471832367,96.4394
1279471892367,96.4855
1279471952367,97.0315
1279472012367,96.7432
1279472072367,97.0419
1279472132367,96.4327
1279472192367,97.2465
1279472252367,97.2490
1279472312367,97.0804
1279472372367,96.3915
1279472432376,97.2525
1279472492376,96.8137
1279472552376,97.1128
1279472612376,96.9587
1279472672376,97.0937
1279472732376,97.3430
1279472792376,96.2325
1279472852376,97.4929
1279472912376,97.5703
1279472972376,96.7616
1279473032376,96.5771
1279473092376,96.8074
1279473152376,97.0423
1279473212376,96.5954
1279473272376,96.6930
1279473332376,96.8435
1279473392376,96.9342
1279473452376,97.1012
1279473512376,97.3067
1279473572376,97.0281
1279473632376,97.0675
1279473692376,97.3388
1279473752376,97.1673
1279473812376,97.0631
1279473872376,97.2356
1279473932376,96.8136
1279473992376,97.0427
1279474052376,96.9841
1279474112376,97.0296
1279474172376,96.9875
1279474232376,96.2763
1279474292376,97.2187
1279474352376,96.7424
1279474412376,97.3352
1279474472376,96.7797
1279474532376,96.8359
1279474592376,96.6619
1279474652376,96.8534
1279474712376,96.7770
1279474772376,96.8240
1279474832376,96.4791
1279474892376,96.6448
1279474952376,97.0270
1279475012376,96.3329
1279475072376,96.5900
1279475132376,96.8484
1279475192376,96.5429
1279475252376,96.1190
1279475312376,96.5347
1279475372376,96.8731
1279475432376,96.9252
1279475492376,97.2654
1279475552376,96.8072
1279475612376,97.3581
1279475672376,96.5629
1279475732376,97.1751
1279475792376,96.7213
1279475852376,97.4342
1279475912376,97.0378
1279475972376,97.0358
1279476032386,97.0708
1279476092386,97.1233
1279476152386,96.9920
1279476212386,97.0690
1279476272386,97.0699
1279476332386,96.6717
1279476392386,97.3177
1279476452386,96.9912
1279476512386,96.7819
1279476572386,97.0638
1279476632386,97.1852
1279476692386,97.6471
1279476752386,97.1732
1279476812386,97.0431
1279476872386,97.7129
1279476932386,97.3137
1279476992386,96.8648
1279477052386,96.9464
1279477112386,97.3536
1279477172386,97.2572
1279477232386,96.8891
1279477292386,97.8141
1279477352386,96.8195
1279477412386,97.3183
1279477472386,96.9911
1279477532386,97.4856
1279477592386,97.0436
1279477652386,97.2713
1279477712386,97.1850